W9KOZ-6 Weather Reports


time (UTC)temp
C
wind
direction
speed
KPH
gust
KPH
rain 1hr
cm
rain 24hr
cm
rain mn
cm
humidity
%
barometer
mb
20260906214928 30 138 11.3 20.9 0.00 0.08 0.05 26 1029.6
20260906213928 30 113 12.9 25.7 0.00 0.08 0.05 26 1029.7
20260906212929 29 121 9.7 22.5 0.00 0.08 0.05 26 1029.8
20260906212410 29 146 12.9 20.9 0.00 0.08 0.05 26 1029.8
20260906210929 29 149 12.9 32.2 0.00 0.08 0.05 26 1029.7
20260906210407 29 120 14.5 25.7 0.00 0.08 0.05 26 1029.7
20260906204926 29 103 9.7 20.9 0.00 0.08 0.05 26 1029.9
20260906203927 29 142 9.7 17.7 0.00 0.08 0.05 26 1029.9
20260906203838 29 165 9.7 24.1 0.00 0.08 0.05 26 1030.1
20260906201927 29 137 9.7 22.5 0.00 0.08 0.05 26 1029.9
20260906200923 29 0 11.3 19.3 0.00 0.08 0.05 26 1029.9
20260906195923 28 0 9.7 20.9 0.00 0.08 0.05 26 1029.9
20260906194924 28 0 9.7 19.3 0.00 0.08 0.05 26 1030.1
20260906193923 28 0 9.7 20.9 0.00 0.08 0.05 26 1030.1
20260906192924 28 0 11.3 25.7 0.00 0.08 0.05 26 1030.1
20260906191924 28 0 9.7 20.9 0.00 0.08 0.05 26 1029.9
20260906190923 28 202 8.0 20.9 0.00 0.08 0.05 26 1030.1
20260906190405 28 151 9.7 22.5 0.00 0.08 0.05 26 1029.9
20260906184923 27 144 11.3 20.9 0.00 0.08 0.05 26 1029.8
20260906183923 27 184 9.7 20.9 0.00 0.08 0.05 26 1029.9
20260906182923 28 151 8.0 20.9 0.00 0.08 0.05 26 1030.1
20260906181923 27 162 6.4 20.9 0.00 0.08 0.05 26 1030.1
20260906180923 27 181 8.0 19.3 0.00 0.08 0.05 26 1029.9
20260906175923 27 183 8.0 19.3 0.00 0.08 0.05 26 1029.9
20260906174921 27 85 9.7 17.7 0.00 0.08 0.05 26 1029.8
20260906173921 27 137 8.0 17.7 0.00 0.08 0.05 26 1029.8
20260906172921 26 177 9.7 17.7 0.00 0.08 0.05 26 1029.8
20260906171921 26 132 8.0 19.3 0.00 0.08 0.05 26 1029.8
20260906170921 26 219 8.0 17.7 0.00 0.08 0.05 26 1029.6
20260906165921 27 140 8.0 16.1 0.00 0.08 0.05 26 1029.8
20260906164921 26 155 6.4 16.1 0.00 0.08 0.05 26 1029.8
20260906163915 26 137 6.4 14.5 0.00 0.08 0.05 26 1029.7
20260906162916 26 110 6.4 12.9 0.00 0.08 0.05 26 1029.6
20260906161913 26 133 4.8 11.3 0.00 0.08 0.05 26 1029.6
20260906160910 26 107 4.8 12.9 0.00 0.08 0.05 26 1029.5
20260906155910 26 119 4.8 9.7 0.00 0.08 0.05 26 1029.5
20260906154910 25 55 4.8 11.3 0.00 0.08 0.05 26 1029.2
20260906153905 25 57 4.8 9.7 0.00 0.08 0.05 26 1029.1
20260906153335 25 4 4.8 9.7 0.00 0.08 0.05 26 1028.8
20260906151858 24 78 6.4 11.3 0.00 0.08 0.05 26 1028.8
20260906150859 23 39 4.8 12.9 0.00 0.08 0.05 26 1028.8
20260906145900 23 67 4.8 12.9 0.00 0.08 0.05 26 1028.7
20260906144859 23 10 3.2 6.4 0.00 0.08 0.05 26 1028.5
20260906143859 22 88 3.2 9.7 0.00 0.08 0.05 26 1028.4
20260906142900 22 95 3.2 9.7 0.00 0.08 0.05 26 1028.2
20260906141848 21 315 6.4 17.7 0.05 0.08 0.05 26 1027.9
20260906140844 20 334 6.4 17.7 0.05 0.08 0.05 26 1027.8
20260906135844 20 345 3.2 8.0 0.05 0.08 0.05 26 1027.8
20260906135322 20 12 3.2 6.4 0.05 0.08 0.05 26 1027.6
20260906133845 19 54 3.2 4.8 0.05 0.08 0.05 26 1027.5
20260906132830 17 0 3.2 6.4 0.05 0.08 0.05 26 1027.2
20260906131829 16 0 1.6 3.2 0.00 0.00 0.00 26 1026.9
20260906130830 15 0 1.6 3.2 0.00 0.00 0.00 26 1026.7
20260906125831 15 345 1.6 6.4 0.00 0.00 0.00 26 1026.5
20260906124829 15 277 1.6 4.8 0.00 0.03 0.00 26 1026.5
20260906123830 15 10 1.6 4.8 0.00 0.03 0.00 26 1026.5
20260906122830 15 8 1.6 3.2 0.00 0.03 0.00 26 1026.4
20260906121830 15 249 1.6 3.2 0.00 0.03 0.00 26 1026.5
20260906121251 15 13 1.6 3.2 0.00 0.03 0.00 26 1026.5
20260906115816 15 82 1.6 3.2 0.00 0.03 0.00 26 1026.5
20260906114817 15 339 1.6 3.2 0.00 0.03 0.00 26 1026.5
20260906113817 15 67 1.6 3.2 0.00 0.03 0.00 26 1026.5
20260906112817 16 244 1.6 3.2 0.00 0.03 0.00 26 1026.7
20260906111802 16 241 1.6 3.2 0.00 0.03 0.00 26 1026.7
20260906110803 16 283 1.6 3.2 0.00 0.03 0.00 26 1026.8
20260906105804 16 176 1.6 3.2 0.00 0.03 0.00 26 1026.7
20260906104803 16 90 1.6 3.2 0.00 0.03 0.00 26 1026.8
20260906103803 16 29 4.8 8.0 0.00 0.03 0.00 26 1026.9
20260906102803 17 129 3.2 6.4 0.00 0.03 0.00 26 1026.9
20260906101804 16 278 4.8 8.0 0.00 0.03 0.00 26 1026.9
20260906100748 16 295 3.2 6.4 0.00 0.03 0.00 26 1026.9
20260906095749 16 111 1.6 4.8 0.00 0.03 0.00 26 1026.9
20260906095226 16 126 1.6 3.2 0.00 0.03 0.00 26 1026.9
20260906093751 16 312 1.6 4.8 0.00 0.03 0.00 26 1026.9
20260906092735 16 0 3.2 4.8 0.00 0.03 0.00 26 1026.9
20260906091735 16 0 0.0 3.2 0.00 0.03 0.00 26 1026.8
20260906090735 16 0 1.6 3.2 0.00 0.03 0.00 26 1026.8
20260906090217 16 0 3.2 6.4 0.00 0.03 0.00 26 1026.8
20260906084735 16 267 3.2 6.4 0.00 0.03 0.00 26 1026.8
20260906083735 17 107 1.6 4.8 0.00 0.03 0.00 26 1026.8
20260906082721 17 313 1.6 6.4 0.00 0.03 0.00 26 1026.9
20260906081722 18 77 4.8 6.4 0.00 0.03 0.00 26 1027.0
20260906080707 19 113 3.2 6.4 0.00 0.03 0.00 26 1027.2
20260906075707 19 334 3.2 6.4 0.00 0.03 0.00 26 1027.3
20260906075634 19 301 1.6 3.2 0.00 0.03 0.00 26 1027.3
20260906073706 19 27 3.2 8.0 0.00 0.03 0.00 26 1027.2
20260906072706 19 6 4.8 12.9 0.00 0.03 0.00 26 1027.3
20260906071654 19 317 4.8 9.7 0.00 0.03 0.00 26 1027.3
20260906070655 18 334 4.8 8.0 0.00 0.03 0.00 26 1027.3
20260906065652 18 322 1.6 6.4 0.00 0.03 0.00 26 1027.0
20260906064652 18 44 1.6 3.2 0.00 0.03 0.00 26 1027.0
20260906063652 18 291 1.6 4.8 0.00 0.03 0.00 26 1027.2
20260906062652 18 296 3.2 4.8 0.00 0.03 0.00 26 1027.0
20260906061637 18 0 3.2 6.4 0.00 0.03 0.00 26 1027.0
20260906060637 17 0 1.6 3.2 0.00 0.03 0.00 26 1026.9
20260906055637 17 0 3.2 8.0 0.00 0.03 0.03 26 1026.9
20260906054637 18 0 1.6 4.8 0.00 0.03 0.03 26 1027.0
20260906053636 18 348 1.6 4.8 0.00 0.03 0.03 26 1027.0
20260906053119 19 221 3.2 6.4 0.00 0.03 0.03 26 1027.2
20260906051636 20 322 3.2 8.0 0.00 0.03 0.03 26 1027.2
20260906051129 20 272 1.6 4.8 0.00 0.03 0.03 26 1027.2
20260906045627 20 301 3.2 9.7 0.00 0.03 0.03 26 1027.3
20260906044624 20 300 3.2 4.8 0.00 0.03 0.03 26 1027.3
20260906044058 20 294 3.2 4.8 0.00 0.03 0.03 26 1027.3
20260906042624 21 261 1.6 3.2 0.00 0.03 0.03 26 1027.3
20260906041625 21 328 3.2 4.8 0.00 0.03 0.03 26 1027.4
20260906040610 21 302 1.6 3.2 0.00 0.03 0.03 26 1027.4
20260906035610 22 344 1.6 3.2 0.00 0.03 0.03 26 1027.4
20260906034610 22 276 3.2 6.4 0.00 0.03 0.03 26 1027.9
20260906033610 22 245 1.6 3.2 0.00 0.03 0.03 26 1027.5
20260906032610 22 60 3.2 9.7 0.00 0.03 0.03 26 1027.6
20260906031604 23 301 6.4 9.7 0.00 0.03 0.03 26 1027.6
20260906030558 23 280 8.0 11.3 0.00 0.03 0.03 26 1027.8
20260906025556 23 253 3.2 6.4 0.00 0.03 0.03 26 1027.6
20260906024556 23 191 3.2 8.0 0.00 0.03 0.03 26 1027.6
20260906023546 23 112 4.8 11.3 0.00 0.03 0.03 26 1027.6
20260906022547 22 72 9.7 16.1 0.00 0.03 0.03 26 1027.8
20260906021540 23 0 3.2 8.0 0.00 0.00 0.00 26 1028.6
20260906020541 23 0 3.2 8.0 0.00 0.00 0.00 26 1027.6
20260906015541 24 0 6.4 8.0 0.00 0.00 0.00 26 1027.6
20260906014541 25 290 3.2 8.0 0.00 0.00 0.00 26 1027.6
20260906013541 25 0 1.6 3.2 0.00 0.00 0.00 26 1027.8
20260906012541 26 315 1.6 3.2 0.00 0.00 0.00 26 1027.9
20260906011540 26 345 1.6 3.2 0.00 0.00 0.00 26 1028.0
20260906010542 27 34 4.8 8.0 0.00 0.00 0.00 26 1028.1
20260906005533 27 7 6.4 11.3 0.00 0.00 0.00 26 1028.2
20260906005011 28 10 6.4 11.3 0.00 0.00 0.00 26 1028.5
20260906003532 28 19 4.8 11.3 0.00 0.03 0.00 26 1028.6
20260906002529 28 285 3.2 6.4 0.00 0.03 0.00 26 1028.6
20260906001529 28 315 3.2 6.4 0.00 0.03 0.00 26 1028.6
20260906000528 28 324 3.2 6.4 0.00 0.03 0.00 26 1028.6
20260905235528 28 338 4.8 9.7 0.00 0.03 0.00 26 1028.8
20260905234528 28 291 3.2 6.4 0.00 0.03 0.00 26 1028.8
20260905233514 28 322 1.6 4.8 0.00 0.03 0.00 26 1028.6
20260905232957 28 2 3.2 4.8 0.00 0.03 0.00 26 1028.6
20260905231513 27 326 3.2 8.0 0.00 0.03 0.00 26 1028.6
20260905230950 27 323 6.4 9.7 0.00 0.03 0.00 26 1028.8
20260905225514 27 344 4.8 9.7 0.00 0.03 0.00 26 1028.8
20260905224512 27 284 6.4 11.3 0.00 0.03 0.00 26 1029.0
20260905223508 27 277 6.4 12.9 0.00 0.03 0.00 26 1028.7
20260905222509 28 312 6.4 11.3 0.00 0.03 0.00 26 1029.2
20260905221956 27 334 8.0 12.9 0.00 0.03 0.00 26 1029.0
20260905220948 27 302 8.0 14.5 0.00 0.03 0.00 26 1028.7
20260905215509 27 339 6.4 11.3 0.00 0.03 0.00 26 1028.7